User: anonymous   Login
Location: Unspecified
(40.7945°N, 0.0000°E)
Time: 16:41:09
(UTC+00:00)
Language:

BEESAT 2 - Orbit

View from above orbital plane
View from above orbital plane
View from above satellite
View from above satellite

Ground track
Ground track

The orbit data is extracted from the following two-line orbital elements,

1 39136U 13015G   19200.50226535  .00000287  00000-0  24459-4 0  9997
2 39136  64.8711 303.2598 0020738 299.2179  60.6872 15.16935972344840
Epoch (UTC): 19 July 2019 12:03:15
Eccentricity: 0.0020738
inclination: 64.8711°
perigee height: 501 km
apogee height: 529 km
right ascension of ascending node: 303.2598°
argument of perigee: 299.2179°
revolutions per day: 15.16935972
mean anomaly at epoch: 60.6872°
orbit number at epoch: 34484

The dashed part of the orbit path shows where the satellite is in the earth's shadow,  

DLR